Tracking 22779 objects as of 13-Apr-2021
HD Live streaming from Space Station
objects crossing your sky now

METEOR 2-12

Track METEOR 2-12 now!
10-day predictions
METEOR 2-12 is classified as:


NORAD ID: 15516
Int'l Code: 1985-013A
Perigee: 939.9 km
Apogee: 962.2 km
Inclination: 82.5 °
Period: 103.9 minutes
Semi major axis: 7322 km
RCS: 5.2452 m2 (large)
Launch date: February 6, 1985
Source: Commonwealth of Independent States (former USSR) (CIS)
Launch site: PLESETSK MISSILE AND SPACE COMPLEX (PKMTR)
aabbcc
Your satellite tracking list
Your tracking list is empty




NASA's NSSDC Master Catalog

Two Line Element Set (TLE):
1 15516U 85013A   21103.11756331  .00000070  00000-0  48531-4 0  9991
2 15516  82.5349  40.8824 0015206 194.9943 165.0769 13.85647018830154
Source of the keplerian elements: AFSPC